| time (UTC) | temp F | wind direction | speed MPH | gust MPH | rain 1hr in | rain 24hr in | rain mn in | humidity % | barometer mb |
| 20260508171821 | 64 | 315 | 6.0 | 13.0 | 0.00 | 0.00 | 0.00 | 37 | 1012.7 |
| 20260508171314 | 64 | 63 | 3.0 | 10.0 | 0.00 | 0.00 | 0.00 | 42 | 1012.9 |
| 20260508170826 | 63 | 136 | 4.0 | 13.0 | 0.00 | 0.00 | 0.00 | 39 | 1012.9 |
| 20260508170339 | 63 | 279 | 4.0 | 13.0 | 0.00 | 0.00 | 0.00 | 38 | 1013.0 |
| 20260508165813 | 63 | 315 | 6.0 | 16.0 | 0.00 | 0.00 | 0.00 | 36 | 1013.0 |
| 20260508165345 | 63 | 146 | 7.0 | 16.0 | 0.00 | 0.00 | 0.00 | 39 | 1013.0 |
| 20260508164816 | 62 | 42 | 4.0 | 11.0 | 0.00 | 0.00 | 0.00 | 42 | 1013.0 |
| 20260508164348 | 62 | 51 | 3.0 | 11.0 | 0.00 | 0.00 | 0.00 | 38 | 1013.2 |
| 20260508163819 | 62 | 133 | 2.0 | 11.0 | 0.00 | 0.00 | 0.00 | 41 | 1013.3 |
| 20260508163331 | 61 | 157 | 5.0 | 13.0 | 0.00 | 0.00 | 0.00 | 40 | 1013.4 |
| 20260508162824 | 62 | 156 | 5.0 | 13.0 | 0.00 | 0.00 | 0.00 | 41 | 1013.4 |
| 20260508162337 | 62 | 153 | 7.0 | 14.0 | 0.00 | 0.00 | 0.00 | 40 | 1013.4 |
| 20260508161848 | 61 | 171 | 8.0 | 14.0 | 0.00 | 0.00 | 0.00 | 40 | 1013.5 |
| 20260508161319 | 61 | 36 | 3.0 | 9.0 | 0.00 | 0.00 | 0.00 | 42 | 1013.7 |
| 20260508160830 | 61 | 130 | 4.0 | 9.0 | 0.00 | 0.00 | 0.00 | 43 | 1013.6 |
| 20260508160326 | 61 | 175 | 4.0 | 14.0 | 0.00 | 0.00 | 0.00 | 46 | 1013.7 |
| 20260508155817 | 61 | 130 | 3.0 | 8.0 | 0.00 | 0.00 | 0.00 | 45 | 1013.8 |
| 20260508155329 | 61 | 163 | 3.0 | 8.0 | 0.00 | 0.00 | 0.00 | 44 | 1013.8 |
| 20260508154820 | 61 | 186 | 3.0 | 11.0 | 0.00 | 0.00 | 0.00 | 41 | 1013.9 |
| 20260508154333 | 62 | 140 | 3.0 | 12.0 | 0.00 | 0.00 | 0.00 | 41 | 1013.8 |
| 20260508153825 | 62 | 178 | 6.0 | 12.0 | 0.00 | 0.00 | 0.00 | 42 | 1013.9 |
| 20260508153316 | 62 | 128 | 6.0 | 12.0 | 0.00 | 0.00 | 0.00 | 44 | 1013.9 |
| 20260508152829 | 61 | 180 | 6.0 | 17.0 | 0.00 | 0.00 | 0.00 | 46 | 1013.9 |
| 20260508152324 | 61 | 311 | 11.0 | 17.0 | 0.00 | 0.00 | 0.00 | 41 | 1013.7 |
| 20260508151815 | 61 | 142 | 5.0 | 11.0 | 0.00 | 0.00 | 0.00 | 43 | 1013.8 |
| 20260508151328 | 61 | 159 | 6.0 | 12.0 | 0.00 | 0.00 | 0.00 | 43 | 1013.8 |
| 20260508150820 | 61 | 32 | 5.0 | 13.0 | 0.00 | 0.00 | 0.00 | 44 | 1013.9 |
| 20260508150333 | 61 | 291 | 5.0 | 12.0 | 0.00 | 0.00 | 0.00 | 45 | 1013.9 |
| 20260508145822 | 60 | 137 | 5.0 | 13.0 | 0.00 | 0.00 | 0.00 | 45 | 1014.0 |
| 20260508145313 | 60 | 96 | 5.0 | 13.0 | 0.00 | 0.00 | 0.00 | 42 | 1014.1 |
| 20260508144847 | 60 | 149 | 4.0 | 13.0 | 0.00 | 0.00 | 0.00 | 43 | 1014.1 |
| 20260508144317 | 59 | 312 | 6.0 | 13.0 | 0.00 | 0.00 | 0.00 | 43 | 1014.1 |
| 20260508143814 | 59 | 173 | 3.0 | 11.0 | 0.00 | 0.00 | 0.00 | 45 | 1014.1 |
| 20260508143327 | 60 | 313 | 4.0 | 11.0 | 0.00 | 0.00 | 0.00 | 43 | 1014.2 |
| 20260508142818 | 60 | 171 | 4.0 | 10.0 | 0.00 | 0.00 | 0.00 | 45 | 1014.1 |
| 20260508142330 | 59 | 161 | 5.0 | 12.0 | 0.00 | 0.00 | 0.00 | 45 | 1014.0 |
| 20260508141822 | 58 | 150 | 7.0 | 12.0 | 0.00 | 0.00 | 0.00 | 44 | 1014.1 |
| 20260508141334 | 58 | 132 | 8.0 | 13.0 | 0.00 | 0.00 | 0.00 | 44 | 1014.1 |
| 20260508140846 | 58 | 212 | 7.0 | 13.0 | 0.00 | 0.00 | 0.00 | 42 | 1014.1 |
| 20260508140317 | 58 | 190 | 4.0 | 11.0 | 0.00 | 0.00 | 0.00 | 47 | 1014.2 |
| 20260508135827 | 58 | 194 | 5.0 | 11.0 | 0.00 | 0.00 | 0.00 | 47 | 1014.2 |
| 20260508135323 | 58 | 146 | 6.0 | 12.0 | 0.00 | 0.00 | 0.00 | 46 | 1014.2 |
| 20260508134835 | 57 | 161 | 6.0 | 11.0 | 0.00 | 0.00 | 0.00 | 47 | 1014.3 |
| 20260508134327 | 57 | 128 | 5.0 | 11.0 | 0.00 | 0.00 | 0.00 | 47 | 1014.2 |
| 20260508133818 | 57 | 180 | 7.0 | 12.0 | 0.00 | 0.00 | 0.00 | 46 | 1014.3 |
| 20260508133330 | 56 | 177 | 6.0 | 9.0 | 0.00 | 0.00 | 0.00 | 51 | 1014.3 |
| 20260508132822 | 56 | 182 | 6.0 | 9.0 | 0.00 | 0.00 | 0.00 | 48 | 1014.3 |
| 20260508132315 | 56 | 175 | 6.0 | 12.0 | 0.00 | 0.00 | 0.00 | 47 | 1014.3 |
| 20260508131827 | 55 | 166 | 7.0 | 11.0 | 0.00 | 0.00 | 0.00 | 53 | 1014.3 |
| 20260508131319 | 54 | 183 | 7.0 | 11.0 | 0.00 | 0.00 | 0.00 | 49 | 1014.4 |
| 20260508130814 | 54 | 180 | 6.0 | 10.0 | 0.00 | 0.00 | 0.00 | 51 | 1014.4 |
| 20260508130327 | 54 | 169 | 5.0 | 10.0 | 0.00 | 0.00 | 0.00 | 51 | 1014.4 |
| 20260508125817 | 54 | 148 | 5.0 | 10.0 | 0.00 | 0.00 | 0.00 | 53 | 1014.4 |
| 20260508125330 | 53 | 186 | 5.0 | 10.0 | 0.00 | 0.00 | 0.00 | 54 | 1014.4 |
| 20260508124823 | 52 | 166 | 6.0 | 11.0 | 0.00 | 0.00 | 0.00 | 55 | 1014.4 |
| 20260508124316 | 52 | 167 | 5.0 | 12.0 | 0.00 | 0.00 | 0.00 | 55 | 1014.5 |
| 20260508123848 | 51 | 182 | 5.0 | 12.0 | 0.00 | 0.00 | 0.00 | 57 | 1014.5 |
| 20260508123319 | 51 | 178 | 5.0 | 11.0 | 0.00 | 0.00 | 0.00 | 57 | 1014.5 |
| 20260508122852 | 50 | 165 | 6.0 | 10.0 | 0.00 | 0.00 | 0.00 | 59 | 1014.5 |
| 20260508122327 | 49 | 178 | 5.0 | 9.0 | 0.00 | 0.00 | 0.00 | 60 | 1014.4 |
| 20260508121818 | 49 | 179 | 5.0 | 8.0 | 0.00 | 0.00 | 0.00 | 60 | 1014.5 |
| 20260508121331 | 48 | 173 | 5.0 | 11.0 | 0.00 | 0.00 | 0.00 | 59 | 1014.5 |
| 20260508120823 | 48 | 167 | 6.0 | 12.0 | 0.00 | 0.00 | 0.00 | 57 | 1014.4 |
| 20260508120313 | 48 | 168 | 5.0 | 12.0 | 0.00 | 0.00 | 0.00 | 58 | 1014.4 |
| 20260508115823 | 48 | 169 | 6.0 | 9.0 | 0.00 | 0.00 | 0.00 | 58 | 1014.4 |
| 20260508115315 | 48 | 180 | 6.0 | 11.0 | 0.00 | 0.00 | 0.00 | 58 | 1014.4 |
| 20260508114828 | 48 | 169 | 5.0 | 11.0 | 0.00 | 0.00 | 0.00 | 59 | 1014.3 |
| 20260508114324 | 47 | 142 | 4.0 | 10.0 | 0.00 | 0.00 | 0.00 | 60 | 1014.3 |
| 20260508113815 | 47 | 156 | 5.0 | 10.0 | 0.00 | 0.00 | 0.00 | 58 | 1014.2 |
| 20260508113327 | 47 | 167 | 5.0 | 8.0 | 0.00 | 0.00 | 0.00 | 59 | 1014.2 |
| 20260508112819 | 47 | 167 | 2.0 | 8.0 | 0.00 | 0.00 | 0.00 | 60 | 1014.2 |
| 20260508112332 | 47 | 170 | 4.0 | 8.0 | 0.00 | 0.00 | 0.00 | 59 | 1014.1 |
| 20260508111824 | 47 | 172 | 4.0 | 6.0 | 0.00 | 0.00 | 0.00 | 59 | 1014.1 |
| 20260508111316 | 47 | 172 | 4.0 | 8.0 | 0.00 | 0.00 | 0.00 | 60 | 1014.0 |
| 20260508110827 | 46 | 178 | 5.0 | 8.0 | 0.00 | 0.00 | 0.00 | 60 | 1013.9 |
| 20260508110323 | 46 | 190 | 4.0 | 6.0 | 0.00 | 0.00 | 0.00 | 61 | 1013.8 |
| 20260508105813 | 46 | 157 | 4.0 | 6.0 | 0.00 | 0.00 | 0.00 | 61 | 1013.8 |
| 20260508105326 | 46 | 175 | 4.0 | 8.0 | 0.00 | 0.00 | 0.00 | 62 | 1013.8 |
| 20260508104837 | 45 | 178 | 4.0 | 7.0 | 0.00 | 0.00 | 0.00 | 63 | 1013.7 |
| 20260508104348 | 45 | 165 | 4.0 | 6.0 | 0.00 | 0.00 | 0.00 | 63 | 1013.7 |
| 20260508103819 | 45 | 178 | 4.0 | 6.0 | 0.00 | 0.00 | 0.00 | 63 | 1013.5 |
| 20260508103331 | 44 | 180 | 4.0 | 7.0 | 0.00 | 0.00 | 0.00 | 63 | 1013.6 |
| 20260508102823 | 44 | 170 | 4.0 | 7.0 | 0.00 | 0.00 | 0.00 | 62 | 1013.6 |
| 20260508102315 | 45 | 175 | 4.0 | 7.0 | 0.00 | 0.00 | 0.00 | 62 | 1013.4 |
| 20260508101828 | 45 | 163 | 3.0 | 7.0 | 0.00 | 0.00 | 0.00 | 62 | 1013.4 |
| 20260508101323 | 45 | 172 | 3.0 | 6.0 | 0.00 | 0.00 | 0.00 | 61 | 1013.3 |
| 20260508100816 | 45 | 169 | 4.0 | 7.0 | 0.00 | 0.00 | 0.00 | 60 | 1013.2 |
| 20260508100348 | 45 | 169 | 4.0 | 6.0 | 0.00 | 0.00 | 0.00 | 60 | 1013.2 |
| 20260508095815 | 45 | 167 | 3.0 | 6.0 | 0.00 | 0.00 | 0.00 | 60 | 1013.2 |
| 20260508095327 | 45 | 169 | 3.0 | 6.0 | 0.00 | 0.00 | 0.00 | 60 | 1013.2 |
| 20260508094818 | 45 | 163 | 3.0 | 6.0 | 0.00 | 0.00 | 0.00 | 60 | 1013.3 |
| 20260508094331 | 45 | 169 | 4.0 | 6.0 | 0.00 | 0.00 | 0.00 | 60 | 1013.3 |
| 20260508093823 | 45 | 169 | 3.0 | 6.0 | 0.00 | 0.00 | 0.00 | 60 | 1013.4 |
| 20260508093319 | 45 | 168 | 4.0 | 6.0 | 0.00 | 0.00 | 0.00 | 60 | 1013.4 |
| 20260508092831 | 45 | 171 | 1.0 | 4.0 | 0.00 | 0.00 | 0.00 | 59 | 1013.4 |
| 20260508092324 | 45 | 168 | 2.0 | 5.0 | 0.00 | 0.00 | 0.00 | 59 | 1013.3 |
| 20260508091835 | 45 | 169 | 2.0 | 5.0 | 0.00 | 0.00 | 0.00 | 59 | 1013.2 |
| 20260508091326 | 46 | 180 | 1.0 | 3.0 | 0.00 | 0.00 | 0.00 | 59 | 1013.1 |
| 20260508090817 | 46 | 171 | 2.0 | 5.0 | 0.00 | 0.00 | 0.00 | 58 | 1013.1 |
| 20260508090329 | 46 | 169 | 2.0 | 5.0 | 0.00 | 0.00 | 0.00 | 59 | 1013.2 |
| 20260508085819 | 46 | 163 | 2.0 | 5.0 | 0.00 | 0.00 | 0.00 | 59 | 1013.0 |
| 20260508085332 | 46 | 175 | 2.0 | 5.0 | 0.00 | 0.00 | 0.00 | 59 | 1013.0 |
| 20260508084827 | 45 | 165 | 2.0 | 4.0 | 0.00 | 0.00 | 0.00 | 59 | 1013.0 |
| 20260508084319 | 45 | 158 | 2.0 | 3.0 | 0.00 | 0.00 | 0.00 | 59 | 1012.9 |
| 20260508083831 | 45 | 146 | 1.0 | 2.0 | 0.00 | 0.00 | 0.00 | 59 | 1012.9 |
| 20260508083323 | 45 | 146 | 0.0 | 2.0 | 0.00 | 0.00 | 0.00 | 59 | 1012.8 |
| 20260508082835 | 45 | 146 | 0.0 | 2.0 | 0.00 | 0.00 | 0.00 | 59 | 1012.8 |
| 20260508082325 | 46 | 56 | 0.0 | 1.0 | 0.00 | 0.00 | 0.00 | 59 | 1012.7 |
| 20260508081817 | 46 | 45 | 0.0 | 1.0 | 0.00 | 0.00 | 0.00 | 59 | 1012.6 |
| 20260508081329 | 46 | 48 | 0.0 | 2.0 | 0.00 | 0.00 | 0.00 | 59 | 1012.7 |
| 20260508080820 | 46 | 48 | 0.0 | 2.0 | 0.00 | 0.00 | 0.00 | 58 | 1012.5 |
| 20260508080316 | 46 | 286 | 1.0 | 2.0 | 0.00 | 0.00 | 0.00 | 58 | 1012.6 |
| 20260508075827 | 46 | 294 | 1.0 | 4.0 | 0.00 | 0.00 | 0.00 | 58 | 1012.6 |
| 20260508075338 | 46 | 306 | 1.0 | 4.0 | 0.00 | 0.00 | 0.00 | 58 | 1012.7 |
| 20260508074829 | 46 | 284 | 2.0 | 4.0 | 0.00 | 0.00 | 0.00 | 58 | 1012.7 |
| 20260508074321 | 46 | 288 | 1.0 | 4.0 | 0.00 | 0.00 | 0.00 | 58 | 1012.8 |
| 20260508073316 | 47 | 281 | 1.0 | 4.0 | 0.00 | 0.00 | 0.00 | 58 | 1012.8 |
| 20260508072828 | 47 | 259 | 1.0 | 6.0 | 0.00 | 0.00 | 0.00 | 57 | 1012.8 |
| 20260508072320 | 47 | 273 | 1.0 | 7.0 | 0.00 | 0.00 | 0.00 | 57 | 1012.8 |
| 20260508071816 | 47 | 282 | 3.0 | 7.0 | 0.00 | 0.00 | 0.00 | 57 | 1012.7 |
| 20260508071327 | 47 | 279 | 3.0 | 7.0 | 0.00 | 0.00 | 0.00 | 57 | 1012.8 |
| 20260508070818 | 47 | 282 | 3.0 | 8.0 | 0.00 | 0.00 | 0.00 | 57 | 1012.7 |
| 20260508070351 | 47 | 281 | 4.0 | 7.0 | 0.00 | 0.00 | 0.00 | 57 | 1012.7 |
| 20260508065819 | 47 | 258 | 1.0 | 5.0 | 0.00 | 0.00 | 0.00 | 57 | 1012.7 |
| 20260508065351 | 47 | 300 | 2.0 | 4.0 | 0.00 | 0.00 | 0.00 | 57 | 1012.7 |
| 20260508064822 | 47 | 291 | 1.0 | 6.0 | 0.00 | 0.00 | 0.00 | 57 | 1012.7 |
| 20260508064314 | 47 | 242 | 2.0 | 6.0 | 0.00 | 0.00 | 0.00 | 57 | 1012.7 |
| 20260508063846 | 48 | 242 | 0.0 | 3.0 | 0.00 | 0.00 | 0.00 | 57 | 1012.7 |
| 20260508063337 | 48 | 282 | 2.0 | 3.0 | 0.00 | 0.00 | 0.00 | 56 | 1012.7 |
| 20260508062826 | 48 | 281 | 2.0 | 3.0 | 0.00 | 0.00 | 0.00 | 56 | 1012.7 |
| 20260508062321 | 48 | 288 | 1.0 | 5.0 | 0.00 | 0.00 | 0.00 | 56 | 1012.7 |
| 20260508061813 | 48 | 274 | 1.0 | 4.0 | 0.00 | 0.00 | 0.00 | 56 | 1012.7 |
| 20260508061345 | 48 | 284 | 1.0 | 7.0 | 0.00 | 0.00 | 0.00 | 56 | 1012.6 |
| 20260508060817 | 48 | 270 | 3.0 | 7.0 | 0.00 | 0.00 | 0.00 | 55 | 1012.6 |
| 20260508060329 | 48 | 294 | 2.0 | 8.0 | 0.00 | 0.00 | 0.00 | 56 | 1012.5 |
| 20260508055819 | 48 | 289 | 2.0 | 8.0 | 0.00 | 0.00 | 0.00 | 55 | 1012.5 |
| 20260508055331 | 48 | 284 | 3.0 | 8.0 | 0.00 | 0.00 | 0.00 | 56 | 1012.5 |
| 20260508054822 | 48 | 282 | 2.0 | 8.0 | 0.00 | 0.00 | 0.00 | 56 | 1012.5 |
| 20260508054314 | 48 | 291 | 2.0 | 8.0 | 0.00 | 0.00 | 0.00 | 56 | 1012.5 |
| 20260508053830 | 49 | 269 | 0.0 | 3.0 | 0.00 | 0.00 | 0.00 | 56 | 1012.5 |
| 20260508053322 | 49 | 284 | 1.0 | 4.0 | 0.00 | 0.00 | 0.00 | 55 | 1012.6 |
| 20260508052833 | 49 | 250 | 1.0 | 4.0 | 0.00 | 0.00 | 0.00 | 55 | 1012.7 |
| 20260508052325 | 49 | 284 | 0.0 | 4.0 | 0.00 | 0.00 | 0.00 | 55 | 1012.6 |
| 20260508051837 | 50 | 279 | 2.0 | 5.0 | 0.00 | 0.00 | 0.00 | 54 | 1012.6 |
| 20260508051348 | 50 | 290 | 3.0 | 5.0 | 0.00 | 0.00 | 0.00 | 54 | 1012.6 |
| 20260508050818 | 50 | 277 | 2.0 | 9.0 | 0.00 | 0.00 | 0.00 | 54 | 1012.5 |
| 20260508050330 | 50 | 302 | 4.0 | 10.0 | 0.00 | 0.00 | 0.00 | 53 | 1012.4 |
| 20260508045820 | 50 | 266 | 3.0 | 10.0 | 0.00 | 0.00 | 0.00 | 53 | 1012.4 |
| 20260508045352 | 50 | 290 | 3.0 | 7.0 | 0.00 | 0.00 | 0.00 | 53 | 1012.4 |
| 20260508044827 | 51 | 288 | 3.0 | 10.0 | 0.00 | 0.00 | 0.00 | 52 | 1012.4 |
| 20260508044319 | 51 | 284 | 5.0 | 10.0 | 0.00 | 0.00 | 0.00 | 51 | 1012.3 |
| 20260508043832 | 51 | 278 | 4.0 | 9.0 | 0.00 | 0.00 | 0.00 | 51 | 1012.3 |
| 20260508043323 | 51 | 257 | 4.0 | 9.0 | 0.00 | 0.00 | 0.00 | 51 | 1012.3 |
| 20260508042816 | 51 | 285 | 3.0 | 4.0 | 0.00 | 0.00 | 0.00 | 51 | 1012.2 |
| 20260508042328 | 51 | 276 | 3.0 | 4.0 | 0.00 | 0.00 | 0.00 | 51 | 1012.1 |
| 20260508041820 | 51 | 252 | 2.0 | 5.0 | 0.00 | 0.00 | 0.00 | 50 | 1012.1 |
| 20260508041331 | 51 | 276 | 2.0 | 7.0 | 0.00 | 0.00 | 0.00 | 50 | 1012.0 |
| 20260508040828 | 51 | 276 | 3.0 | 6.0 | 0.00 | 0.00 | 0.00 | 50 | 1011.9 |
| 20260508040339 | 52 | 271 | 2.0 | 5.0 | 0.00 | 0.00 | 0.00 | 50 | 1011.8 |
| 20260508035828 | 52 | 98 | 2.0 | 5.0 | 0.00 | 0.00 | 0.00 | 50 | 1011.7 |
| 20260508035340 | 52 | 272 | 2.0 | 5.0 | 0.00 | 0.00 | 0.00 | 50 | 1011.6 |
| 20260508034831 | 52 | 274 | 4.0 | 6.0 | 0.00 | 0.00 | 0.00 | 49 | 1011.5 |
| 20260508034322 | 52 | 290 | 2.0 | 7.0 | 0.00 | 0.00 | 0.00 | 49 | 1011.4 |
| 20260508033814 | 52 | 290 | 3.0 | 10.0 | 0.00 | 0.00 | 0.00 | 49 | 1011.4 |
| 20260508033326 | 52 | 267 | 5.0 | 10.0 | 0.00 | 0.00 | 0.00 | 49 | 1011.4 |
| 20260508032838 | 53 | 277 | 1.0 | 8.0 | 0.00 | 0.00 | 0.00 | 49 | 1011.4 |
| 20260508032329 | 53 | 302 | 3.0 | 9.0 | 0.00 | 0.00 | 0.00 | 48 | 1011.4 |
| 20260508031825 | 53 | 302 | 3.0 | 9.0 | 0.00 | 0.00 | 0.00 | 48 | 1011.3 |
| 20260508031316 | 53 | 279 | 4.0 | 8.0 | 0.00 | 0.00 | 0.00 | 48 | 1011.3 |
| 20260508030829 | 53 | 274 | 3.0 | 9.0 | 0.00 | 0.00 | 0.00 | 48 | 1011.2 |
| 20260508030319 | 53 | 279 | 4.0 | 9.0 | 0.00 | 0.00 | 0.00 | 48 | 1011.2 |
| 20260508025829 | 54 | 286 | 4.0 | 9.0 | 0.00 | 0.00 | 0.00 | 48 | 1011.1 |
| 20260508025321 | 54 | 291 | 4.0 | 11.0 | 0.00 | 0.00 | 0.00 | 48 | 1011.0 |
| 20260508024833 | 54 | 294 | 5.0 | 11.0 | 0.00 | 0.00 | 0.00 | 47 | 1011.1 |
| 20260508024324 | 54 | 282 | 6.0 | 13.0 | 0.00 | 0.00 | 0.00 | 47 | 1010.9 |
| 20260508023837 | 54 | 296 | 6.0 | 13.0 | 0.00 | 0.00 | 0.00 | 48 | 1010.9 |
| 20260508023331 | 54 | 290 | 4.0 | 7.0 | 0.00 | 0.00 | 0.00 | 49 | 1010.9 |
| 20260508022822 | 54 | 297 | 4.0 | 9.0 | 0.00 | 0.00 | 0.00 | 49 | 1010.9 |
| 20260508022313 | 54 | 287 | 4.0 | 9.0 | 0.00 | 0.00 | 0.00 | 48 | 1010.9 |
| 20260508021825 | 54 | 291 | 3.0 | 6.0 | 0.00 | 0.00 | 0.00 | 49 | 1010.9 |
| 20260508021337 | 54 | 305 | 2.0 | 5.0 | 0.00 | 0.00 | 0.00 | 48 | 1010.8 |
| 20260508020828 | 54 | 300 | 2.0 | 6.0 | 0.00 | 0.00 | 0.00 | 48 | 1010.7 |
| 20260508020319 | 54 | 269 | 3.0 | 11.0 | 0.00 | 0.00 | 0.00 | 48 | 1010.6 |
| 20260508015831 | 54 | 306 | 3.0 | 7.0 | 0.00 | 0.00 | 0.00 | 48 | 1010.6 |
| 20260508015323 | 54 | 304 | 3.0 | 6.0 | 0.00 | 0.00 | 0.00 | 47 | 1010.6 |
| 20260508014819 | 55 | 277 | 2.0 | 6.0 | 0.00 | 0.00 | 0.00 | 47 | 1010.5 |
| 20260508014351 | 55 | 286 | 2.0 | 8.0 | 0.00 | 0.00 | 0.00 | 47 | 1010.5 |
| 20260508013822 | 55 | 294 | 4.0 | 8.0 | 0.00 | 0.00 | 0.00 | 46 | 1010.4 |
| 20260508013314 | 56 | 92 | 2.0 | 9.0 | 0.00 | 0.00 | 0.00 | 46 | 1010.4 |
| 20260508012826 | 56 | 308 | 2.0 | 9.0 | 0.00 | 0.00 | 0.00 | 46 | 1010.3 |
| 20260508012319 | 56 | 303 | 3.0 | 7.0 | 0.00 | 0.00 | 0.00 | 46 | 1010.3 |
| 20260508011831 | 56 | 284 | 4.0 | 11.0 | 0.00 | 0.00 | 0.00 | 45 | 1010.2 |
| 20260508011323 | 56 | 277 | 6.0 | 11.0 | 0.00 | 0.00 | 0.00 | 45 | 1010.0 |
| 20260508010835 | 56 | 277 | 7.0 | 11.0 | 0.00 | 0.00 | 0.00 | 45 | 1009.9 |
| 20260508010331 | 56 | 278 | 3.0 | 8.0 | 0.00 | 0.00 | 0.00 | 46 | 1009.9 |
| 20260508005822 | 56 | 273 | 3.0 | 9.0 | 0.00 | 0.00 | 0.00 | 45 | 1009.8 |
| 20260508005314 | 56 | 241 | 5.0 | 9.0 | 0.00 | 0.00 | 0.00 | 45 | 1009.8 |
| 20260508004826 | 56 | 282 | 0.0 | 2.0 | 0.00 | 0.00 | 0.00 | 46 | 1009.7 |
| 20260508004318 | 57 | 271 | 0.0 | 4.0 | 0.00 | 0.00 | 0.00 | 46 | 1009.7 |
| 20260508003830 | 57 | 268 | 1.0 | 4.0 | 0.00 | 0.00 | 0.00 | 45 | 1009.7 |
| 20260508003322 | 57 | 294 | 2.0 | 9.0 | 0.00 | 0.00 | 0.00 | 45 | 1009.6 |
| 20260508002814 | 58 | 290 | 2.0 | 9.0 | 0.00 | 0.00 | 0.00 | 44 | 1009.5 |
| 20260508002330 | 58 | 275 | 5.0 | 9.0 | 0.00 | 0.00 | 0.00 | 44 | 1009.5 |
| 20260508001822 | 58 | 295 | 3.0 | 9.0 | 0.00 | 0.00 | 0.00 | 44 | 1009.5 |
| 20260508001314 | 58 | 312 | 5.0 | 11.0 | 0.00 | 0.00 | 0.00 | 43 | 1009.3 |
| 20260508000826 | 58 | 300 | 5.0 | 11.0 | 0.00 | 0.00 | 0.00 | 43 | 1009.2 |
| 20260508000319 | 58 | 302 | 7.0 | 12.0 | 0.00 | 0.00 | 0.00 | 42 | 1009.1 |
| 20260507235828 | 58 | 281 | 5.0 | 14.0 | 0.00 | 0.00 | 0.00 | 43 | 1009.0 |
| 20260507235319 | 58 | 269 | 8.0 | 14.0 | 0.00 | 0.00 | 0.00 | 42 | 1008.9 |
| 20260507234831 | 59 | 286 | 7.0 | 14.0 | 0.00 | 0.00 | 0.00 | 42 | 1008.9 |
| 20260507234328 | 59 | 284 | 6.0 | 14.0 | 0.00 | 0.00 | 0.00 | 42 | 1008.8 |
| 20260507233839 | 59 | 293 | 7.0 | 12.0 | 0.00 | 0.00 | 0.00 | 41 | 1008.7 |
| 20260507233330 | 60 | 272 | 5.0 | 14.0 | 0.00 | 0.00 | 0.00 | 41 | 1008.7 |
| 20260507232843 | 60 | 279 | 9.0 | 14.0 | 0.00 | 0.00 | 0.00 | 40 | 1008.6 |
| 20260507232314 | 60 | 288 | 5.0 | 12.0 | 0.00 | 0.00 | 0.00 | 41 | 1008.7 |
| 20260507231827 | 60 | 299 | 7.0 | 11.0 | 0.00 | 0.00 | 0.00 | 41 | 1008.6 |
| 20260507231318 | 60 | 294 | 7.0 | 12.0 | 0.00 | 0.00 | 0.00 | 41 | 1008.6 |
| 20260507230850 | 60 | 271 | 7.0 | 13.0 | 0.00 | 0.00 | 0.00 | 41 | 1008.6 |
| 20260507230321 | 60 | 300 | 8.0 | 13.0 | 0.00 | 0.00 | 0.00 | 40 | 1008.5 |
| 20260507225831 | 60 | 271 | 8.0 | 13.0 | 0.00 | 0.00 | 0.00 | 40 | 1008.4 |
| 20260507225323 | 60 | 305 | 7.0 | 13.0 | 0.00 | 0.00 | 0.00 | 41 | 1008.3 |
| 20260507224815 | 60 | 302 | 8.0 | 15.0 | 0.00 | 0.00 | 0.00 | 41 | 1008.3 |
| 20260507224327 | 61 | 302 | 7.0 | 15.0 | 0.00 | 0.00 | 0.00 | 41 | 1008.2 |
| 20260507223819 | 61 | 285 | 8.0 | 13.0 | 0.00 | 0.00 | 0.00 | 40 | 1008.2 |
| 20260507223331 | 61 | 312 | 7.0 | 11.0 | 0.00 | 0.00 | 0.00 | 40 | 1008.0 |
| 20260507222822 | 62 | 302 | 6.0 | 11.0 | 0.00 | 0.00 | 0.00 | 40 | 1008.0 |
| 20260507222314 | 62 | 13 | 6.0 | 12.0 | 0.00 | 0.00 | 0.00 | 40 | 1007.8 |
| 20260507221826 | 62 | 294 | 8.0 | 12.0 | 0.00 | 0.00 | 0.00 | 39 | 1007.9 |
| 20260507221322 | 63 | 286 | 6.0 | 14.0 | 0.00 | 0.00 | 0.00 | 40 | 1007.9 |
| 20260507220854 | 63 | 271 | 9.0 | 14.0 | 0.00 | 0.00 | 0.00 | 39 | 1007.9 |
| 20260507220324 | 63 | 312 | 7.0 | 17.0 | 0.00 | 0.00 | 0.00 | 40 | 1007.7 |
| 20260507215813 | 63 | 305 | 10.0 | 16.0 | 0.00 | 0.00 | 0.00 | 37 | 1007.6 |
| 20260507215326 | 63 | 294 | 8.0 | 14.0 | 0.00 | 0.00 | 0.00 | 39 | 1007.6 |
| 20260507214817 | 63 | 281 | 4.0 | 13.0 | 0.00 | 0.00 | 0.00 | 41 | 1007.6 |
| 20260507214329 | 64 | 284 | 7.0 | 13.0 | 0.00 | 0.01 | 0.00 | 39 | 1007.6 |
| 20260507213820 | 64 | 130 | 5.0 | 12.0 | 0.00 | 0.01 | 0.00 | 39 | 1007.5 |
| 20260507213332 | 64 | 154 | 4.0 | 12.0 | 0.00 | 0.01 | 0.00 | 39 | 1007.4 |
| 20260507212828 | 64 | 295 | 5.0 | 12.0 | 0.00 | 0.01 | 0.00 | 42 | 1007.5 |
| 20260507212320 | 64 | 9 | 4.0 | 9.0 | 0.00 | 0.01 | 0.00 | 41 | 1007.4 |
| 20260507211832 | 64 | 276 | 5.0 | 12.0 | 0.00 | 0.01 | 0.00 | 40 | 1007.4 |
| 20260507211324 | 64 | 287 | 6.0 | 13.0 | 0.00 | 0.01 | 0.00 | 37 | 1007.4 |
| 20260507210816 | 64 | 290 | 7.0 | 13.0 | 0.00 | 0.01 | 0.00 | 38 | 1007.4 |
| 20260507210328 | 64 | 303 | 5.0 | 15.0 | 0.00 | 0.01 | 0.00 | 38 | 1007.3 |
| 20260507205818 | 64 | 288 | 4.0 | 15.0 | 0.00 | 0.01 | 0.00 | 39 | 1007.3 |
| 20260507205330 | 64 | 9 | 9.0 | 17.0 | 0.00 | 0.01 | 0.00 | 37 | 1007.1 |
| 20260507204842 | 64 | 360 | 9.0 | 14.0 | 0.00 | 0.01 | 0.00 | 39 | 1007.2 |
| 20260507204317 | 64 | 277 | 7.0 | 12.0 | 0.00 | 0.01 | 0.00 | 37 | 1007.4 |
| 20260507203829 | 64 | 83 | 7.0 | 12.0 | 0.00 | 0.01 | 0.00 | 39 | 1007.4 |
| 20260507203320 | 64 | 43 | 6.0 | 12.0 | 0.00 | 0.01 | 0.00 | 38 | 1007.5 |
| 20260507202832 | 65 | 244 | 6.0 | 12.0 | 0.00 | 0.01 | 0.00 | 37 | 1007.5 |
| 20260507202324 | 65 | 9 | 6.0 | 12.0 | 0.00 | 0.01 | 0.00 | 40 | 1007.6 |
| 20260507201816 | 65 | 274 | 7.0 | 12.0 | 0.00 | 0.01 | 0.00 | 38 | 1007.4 |
| 20260507201328 | 65 | 279 | 5.0 | 17.0 | 0.00 | 0.01 | 0.00 | 40 | 1007.5 |
| 20260507200840 | 65 | 284 | 9.0 | 17.0 | 0.00 | 0.01 | 0.00 | 39 | 1007.4 |
| 20260507200315 | 65 | 151 | 5.0 | 12.0 | 0.00 | 0.01 | 0.00 | 40 | 1007.5 |
| 20260507195826 | 65 | 313 | 7.0 | 12.0 | 0.00 | 0.01 | 0.00 | 43 | 1007.5 |
| 20260507195318 | 65 | 307 | 7.0 | 14.0 | 0.00 | 0.01 | 0.00 | 40 | 1007.6 |
| 20260507194850 | 65 | 212 | 7.0 | 14.0 | 0.00 | 0.01 | 0.00 | 37 | 1007.5 |
| 20260507194321 | 65 | 360 | 3.0 | 13.0 | 0.00 | 0.01 | 0.00 | 43 | 1007.6 |
| 20260507193833 | 64 | 309 | 8.0 | 13.0 | 0.00 | 0.01 | 0.00 | 38 | 1007.6 |
| 20260507193323 | 65 | 25 | 5.0 | 13.0 | 0.00 | 0.01 | 0.00 | 38 | 1007.7 |
| 20260507192836 | 65 | 296 | 7.0 | 13.0 | 0.00 | 0.01 | 0.00 | 37 | 1007.7 |
| 20260507192346 | 64 | 36 | 4.0 | 10.0 | 0.00 | 0.01 | 0.00 | 41 | 1007.8 |
| 20260507191817 | 64 | 286 | 4.0 | 9.0 | 0.00 | 0.01 | 0.00 | 39 | 1007.8 |
| 20260507191313 | 64 | 287 | 2.0 | 8.0 | 0.00 | 0.01 | 0.00 | 43 | 1007.9 |
| 20260507190825 | 63 | 304 | 3.0 | 13.0 | 0.00 | 0.01 | 0.00 | 40 | 1007.9 |
| 20260507190317 | 64 | 296 | 7.0 | 15.0 | 0.00 | 0.01 | 0.00 | 39 | 1007.9 |
| 20260507185828 | 65 | 268 | 9.0 | 15.0 | 0.00 | 0.01 | 0.00 | 40 | 1007.9 |
| 20260507185320 | 65 | 312 | 5.0 | 10.0 | 0.00 | 0.01 | 0.00 | 42 | 1008.1 |
| 20260507184832 | 65 | 9 | 4.0 | 9.0 | 0.00 | 0.01 | 0.00 | 42 | 1008.1 |
| 20260507184323 | 65 | 115 | 3.0 | 12.0 | 0.00 | 0.01 | 0.00 | 43 | 1008.2 |
| 20260507183815 | 65 | 159 | 5.0 | 10.0 | 0.00 | 0.01 | 0.00 | 45 | 1008.2 |
| 20260507183328 | 64 | 292 | 4.0 | 10.0 | 0.00 | 0.01 | 0.00 | 41 | 1008.3 |
| 20260507182824 | 64 | 110 | 4.0 | 11.0 | 0.00 | 0.01 | 0.00 | 43 | 1008.3 |
| 20260507182316 | 64 | 360 | 5.0 | 11.0 | 0.00 | 0.01 | 0.00 | 46 | 1008.2 |
| 20260507181828 | 64 | 267 | 3.0 | 11.0 | 0.00 | 0.01 | 0.00 | 47 | 1008.3 |
| 20260507181320 | 63 | 277 | 3.0 | 10.0 | 0.00 | 0.01 | 0.00 | 45 | 1008.4 |
| 20260507180832 | 63 | 285 | 3.0 | 9.0 | 0.00 | 0.01 | 0.00 | 49 | 1008.4 |
| 20260507180323 | 63 | 13 | 3.0 | 7.0 | 0.00 | 0.01 | 0.00 | 48 | 1008.5 |
| 20260507175833 | 62 | 94 | 1.0 | 11.0 | 0.00 | 0.01 | 0.00 | 47 | 1008.6 |
| 20260507175325 | 62 | 282 | 6.0 | 11.0 | 0.00 | 0.01 | 0.00 | 49 | 1008.7 |
| 20260507174842 | 61 | 311 | 2.0 | 11.0 | 0.00 | 0.01 | 0.00 | 50 | 1008.8 |
| 20260507174313 | 62 | 279 | 7.0 | 11.0 | 0.00 | 0.01 | 0.00 | 49 | 1008.9 |
| 20260507173826 | 62 | 14 | 1.0 | 10.0 | 0.00 | 0.01 | 0.00 | 46 | 1009.0 |
| 20260507173317 | 62 | 12 | 7.0 | 10.0 | 0.00 | 0.01 | 0.00 | 51 | 1009.1 |
| 20260507172829 | 62 | 313 | 2.0 | 12.0 | 0.00 | 0.01 | 0.00 | 51 | 1009.2 |
| 20260507172321 | 62 | 28 | 5.0 | 12.0 | 0.00 | 0.01 | 0.00 | 49 | 1009.2 |